Wisconsin Rapids, WI

6:53 AM CDT on July 28, 2017 (GMT -0500)
Alexander Field South Wood County

Weather History for KISW - March, 2013

Change the Weather History Date:

Monday, March 18, 2013

  Actual Average Record
Temperature  
Mean Temperature 22 °F -  
Max Temperature 30 °F 40 °F 81 °F (2012)
Min Temperature 15 °F 20 °F -8 °F (1967)
Degree Days  
Heating Degree Days 42    
Moisture  
Dew Point 20 °F    
Average Humidity 83    
Maximum Humidity 93    
Minimum Humidity 73    
Precipitation  
Precipitation 0.26 in - - ()
Sea Level Pressure  
Sea Level Pressure 29.68 in    
Wind  
Wind Speed 8 mph (SSE)    
Max Wind Speed 20 mph    
Max Gust Speed 28 mph    
Visibility 4 miles    
Events Fog , Snow    
Averages and records for this station are not official NWS values.
T = Trace of Precipitation, MM = Missing Value Source: NWS Daily Summary

Daily Weather History Graph

Daily Weather History Graph

Search for Another Location

Airport or City:

Trip Planner

Search our weather history database for the weather conditions in past years. The results will help you decide how hot, cold, wet, or windy it might be!

Date:

Astronomy

Mar. 18, 2013 Rise Set
Actual Time 7:05 AM CDT 7:09 PM CDT
Civil Twilight 6:36 AM CDT 7:38 PM CDT
Nautical Twilight 6:02 AM CDT 8:12 PM CDT
Astronomical Twilight 5:28 AM CDT 8:47 PM CDT
Moon 10:52 AM CDT (3/18) 1:21 AM CDT (3/18)
Length of Visible Light 13h 01m
Length of Day
12h 03m
Waxing Crescent, 41% of the Moon is Illuminated
Mar 18
Waxing Crescent
Mar 19
First Quarter
Mar 27
Full
Apr 2
Last Quarter
Apr 10
New

Hourly Weather History & Observations

Time (CDT) Temp. Windchill Dew Point Humidity Pressure Visibility Wind Dir Wind Speed Gust Speed Precip Events Conditions
12:54 AM 17.1 °F 8.7 °F 10.0 °F 74% 30.05 in 10.0 mi East 5.8 mph - N/A   Clear
1:54 AM 16.0 °F 7.4 °F 10.0 °F 77% 30.03 in 10.0 mi East 5.8 mph - N/A   Clear
2:54 AM 17.1 °F 7.6 °F 10.9 °F 77% 29.99 in 10.0 mi East 6.9 mph - N/A   Mostly Cloudy
3:54 AM 16.0 °F 8.8 °F 10.9 °F 81% 29.96 in 10.0 mi East 4.6 mph - N/A   Clear
4:54 AM 16.0 °F 6.3 °F 12.0 °F 84% 29.92 in 10.0 mi East 6.9 mph - N/A   Clear
5:23 AM 17.6 °F 6.4 °F 12.2 °F 79% 29.85 in 10.0 mi East 9.2 mph - N/A   Mostly Cloudy
5:54 AM 19.0 °F 11.1 °F 14.0 °F 81% 29.88 in 10.0 mi East 5.8 mph - N/A   Overcast
6:51 AM 21.2 °F 9.5 °F 15.8 °F 80% 29.80 in 10.0 mi East 11.5 mph - N/A   Overcast
6:54 AM 21.0 °F 9.9 °F 16.0 °F 81% 29.85 in 10.0 mi East 10.4 mph - N/A   Overcast
7:37 AM 21.2 °F 9.5 °F 17.6 °F 86% 29.78 in 10.0 mi ESE 11.5 mph - N/A   Overcast
7:54 AM 23.0 °F 11.7 °F 18.0 °F 81% 29.82 in 10.0 mi ESE 11.5 mph - N/A   Overcast
8:54 AM 24.1 °F 18.2 °F 19.0 °F 81% 29.80 in 10.0 mi ESE 4.6 mph - N/A   Overcast
9:54 AM 26.1 °F 18.4 °F 19.9 °F 78% 29.77 in 8.0 mi ESE 6.9 mph - N/A   Overcast
10:02 AM 26.6 °F 19.1 °F 21.2 °F 80% 29.71 in 1.8 mi ESE 6.9 mph - 0.00 in Snow Light Snow
10:08 AM 26.6 °F 20.0 °F 21.2 °F 80% 29.71 in 0.8 mi East 5.8 mph - 0.00 in Snow Light Snow
10:37 AM 26.6 °F 21.2 °F 23.0 °F 86% 29.69 in 0.2 mi ESE 4.6 mph - 0.03 in Fog , Snow Snow
10:54 AM 27.0 °F 20.5 °F 23.0 °F 85% 29.73 in 0.2 mi East 5.8 mph - 0.05 in Fog , Snow Snow
11:14 AM 26.6 °F 20.0 °F 24.8 °F 93% 29.68 in 0.5 mi East 5.8 mph - 0.02 in Fog , Snow Snow
11:21 AM 28.4 °F 21.2 °F 24.8 °F 86% 29.67 in 0.5 mi ESE 6.9 mph - 0.02 in Fog , Snow Light Snow
11:40 AM 28.4 °F 20.4 °F 24.8 °F 86% 29.66 in 0.8 mi ESE 8.1 mph - 0.03 in Snow Light Snow
11:54 AM 28.0 °F 20.8 °F 24.1 °F 85% 29.71 in 1.0 mi SE 6.9 mph - 0.03 in Snow Light Snow
12:04 PM 28.4 °F 23.3 °F 24.8 °F 86% 29.66 in 1.0 mi ESE 4.6 mph - 0.01 in Snow Light Snow
12:07 PM 28.4 °F 23.3 °F 24.8 °F 86% 29.66 in 0.8 mi ESE 4.6 mph - 0.01 in Snow Light Snow
12:17 PM 28.4 °F 22.2 °F 24.8 °F 86% 29.65 in 0.5 mi SSE 5.8 mph - 0.01 in Fog , Snow Snow
12:54 PM 28.0 °F 20.0 °F 25.0 °F 88% 29.69 in 0.2 mi SE 8.1 mph - 0.04 in Fog , Snow Snow
1:09 PM 28.4 °F 22.2 °F 24.8 °F 86% 29.63 in 0.5 mi SE 5.8 mph - 0.01 in Fog , Snow Snow
1:44 PM 28.4 °F 21.2 °F 24.8 °F 86% 29.60 in 0.2 mi ESE 6.9 mph - 0.04 in Fog , Snow Snow
1:54 PM 28.0 °F 21.7 °F 25.0 °F 88% 29.65 in 0.2 mi ESE 5.8 mph - 0.05 in Fog , Snow Snow
2:44 PM 28.4 °F 21.2 °F 24.8 °F 86% 29.57 in 0.5 mi SE 6.9 mph - 0.05 in Fog , Snow Light Snow
2:54 PM 28.9 °F 22.8 °F 26.1 °F 89% 29.61 in 1.0 mi SE 5.8 mph - 0.05 in Snow Light Snow
3:00 PM 28.4 °F 24.6 °F 26.6 °F 93% 29.56 in 1.2 mi SE 3.5 mph - 0.00 in Snow Light Snow
3:20 PM 28.4 °F 22.2 °F 24.8 °F 86% 29.56 in 3.0 mi South 5.8 mph - 0.00 in Snow Light Snow
3:39 PM 30.2 °F 26.7 °F 26.6 °F 86% 29.55 in 2.5 mi South 3.5 mph - 0.00 in Snow Light Snow
3:54 PM 30.0 °F 26.5 °F 27.0 °F 88% 29.60 in 1.2 mi South 3.5 mph - 0.01 in Snow Light Snow
4:12 PM 30.2 °F 22.6 °F 26.6 °F 86% 29.55 in 1.0 mi SSW 8.1 mph - 0.00 in Snow Light Snow
4:21 PM 30.2 °F 24.3 °F 26.6 °F 86% 29.55 in 1.2 mi South 5.8 mph - 0.00 in Snow Light Snow
4:30 PM 30.2 °F 22.6 °F 26.6 °F 86% 29.55 in 1.2 mi SSW 8.1 mph - 0.00 in Snow Light Snow
4:44 PM 30.2 °F 23.4 °F 26.6 °F 86% 29.55 in 2.0 mi SSW 6.9 mph - 0.01 in Snow Light Snow
4:52 PM 30.2 °F 23.4 °F 26.6 °F 86% 29.55 in 1.5 mi SW 6.9 mph - 0.01 in Snow Light Snow
4:54 PM 30.0 °F 23.2 °F 26.1 °F 85% 29.60 in 1.2 mi SW 6.9 mph - 0.01 in Snow Light Snow
5:09 PM 30.2 °F 23.4 °F 26.6 °F 86% 29.55 in 3.0 mi SW 6.9 mph - 0.00 in Snow Light Snow
5:41 PM 30.2 °F 21.3 °F 26.6 °F 86% 29.54 in 2.0 mi West 10.4 mph 17.3 mph 0.00 in Snow Light Snow
5:54 PM 27.0 °F 14.3 °F 21.9 °F 81% 29.60 in 1.0 mi West 17.3 mph 25.3 mph 0.01 in Snow Light Snow
6:04 PM 26.6 °F 13.8 °F 21.2 °F 80% 29.55 in 0.8 mi West 17.3 mph 25.3 mph 0.00 in Snow Light Snow
6:11 PM 24.8 °F 11.1 °F 19.4 °F 80% 29.56 in 1.0 mi West 18.4 mph 26.5 mph 0.00 in Snow Light Snow
6:34 PM 23.0 °F 10.1 °F 17.6 °F 80% 29.57 in 1.5 mi West 15.0 mph 26.5 mph 0.00 in Snow Light Snow
6:44 PM 23.0 °F 11.7 °F 17.6 °F 80% 29.57 in 1.0 mi West 11.5 mph 21.9 mph 0.00 in Snow Light Snow
6:52 PM 21.2 °F 7.8 °F 17.6 °F 86% 29.58 in 1.2 mi West 15.0 mph 24.2 mph 0.00 in Snow Light Snow
6:54 PM 21.9 °F 9.2 °F 17.1 °F 82% 29.63 in 1.2 mi West 13.8 mph 24.2 mph 0.00 in Snow Light Snow
7:02 PM 21.2 °F 6.0 °F 15.8 °F 80% 29.59 in 0.8 mi WNW 19.6 mph 24.2 mph 0.01 in Snow Light Snow
7:17 PM 21.2 °F 7.8 °F 17.6 °F 86% 29.59 in 1.2 mi West 15.0 mph 19.6 mph 0.01 in Snow Light Snow
7:24 PM 21.2 °F 8.3 °F 15.8 °F 80% 29.59 in 3.0 mi West 13.8 mph 24.2 mph 0.01 in Snow Light Snow
7:42 PM 19.4 °F 4.1 °F 15.8 °F 86% 29.60 in 2.0 mi West 18.4 mph 25.3 mph 0.01 in Snow Light Snow
7:54 PM 19.0 °F 4.0 °F 14.0 °F 81% 29.66 in 3.0 mi West 17.3 mph 26.5 mph 0.01 in Snow Light Snow
8:54 PM 17.1 °F 1.5 °F 10.0 °F 74% 29.68 in 6.0 mi West 17.3 mph 27.6 mph 0.00 in Snow Light Snow
9:14 PM 17.6 °F 4.3 °F 10.4 °F 73% 29.64 in 8.0 mi West 12.7 mph 18.4 mph 0.00 in Snow Light Snow
9:54 PM 16.0 °F 2.9 °F 10.0 °F 77% 29.69 in 6.0 mi West 11.5 mph - 0.00 in Snow Light Snow
10:38 PM 15.8 °F 0.9 °F 10.4 °F 79% 29.64 in 2.5 mi West 15.0 mph 20.7 mph 0.00 in Snow Light Snow
10:54 PM 16.0 °F 2.9 °F 10.0 °F 77% 29.70 in 2.5 mi West 11.5 mph - 0.00 in Snow Light Snow
11:01 PM 15.8 °F 0.3 °F 10.4 °F 79% 29.65 in 4.0 mi WSW 16.1 mph 21.9 mph 0.00 in Snow Light Snow
11:54 PM 15.1 °F 1.8 °F 9.0 °F 77% 29.69 in 7.0 mi West 11.5 mph - 0.00 in Snow Light Snow